Location: Unspecified
(49.2170°N, 0.0000°E)
Time: 15:09:28
(UTC+00:00)

Tiros 1 despin weight - Pass Details

Date: 28 January 2021
Orbit: 593 x 642 km, 48.2° (Epoch: 07 March)

Event Time Altitude Azimuth Distance (km) Brightness Sun altitude
Rises 16:17:41 0° 275° (W) 2,884 ? 3.8°
Reaches altitude 10° 16:20:01 10° 274° (W) 1,970 ? 3.4°
Maximum altitude 16:24:31 72° 190° (S) 639 ? 2.8°
Drops below altitude 10° 16:28:57 10° 107° (ESE) 1,939 ? 2.2°
Sets 16:31:13 0° 105° (ESE) 2,835 ? 1.9°
